Time,TemperatureF,DewpointF,PressureIn,WindDirection,WindDirectionDegrees,WindSpeedMPH,WindSpeedGustMPH,Humidity,HourlyPrecipIn,Conditions,Clouds,dailyrainin,SoftwareType,DateUTC
2013-07-31 00:05:00,72.3,65.1,27.24,SW,225,3.5,3.5,78,0.00,CLR,,0.00,WeatherDisplay:10.37,2013-07-31 05:05:00,
2013-07-31 00:10:00,72.3,65.1,27.24,SW,225,3.5,3.5,78,0.00,CLR,,0.00,WeatherDisplay:10.37,2013-07-31 05:10:00,
2013-07-31 00:15:00,72.3,65.1,27.26,North,0,3.5,3.5,78,0.00,CLR,,0.00,WeatherDisplay:10.37,2013-07-31 05:15:00,
2013-07-31 00:20:00,72.0,65.1,27.27,East,90,3.5,3.5,79,0.00,CLR,,0.00,WeatherDisplay:10.37,2013-07-31 05:20:00,
2013-07-31 00:25:00,72.0,65.1,27.26,SE,135,3.5,3.5,79,0.00,CLR,,0.00,WeatherDisplay:10.37,2013-07-31 05:25:00,
2013-07-31 00:31:00,72.0,65.1,27.27,East,90,3.5,3.5,79,0.00,CLR,,0.00,WeatherDisplay:10.37,2013-07-31 05:31:00,
2013-07-31 00:36:00,71.8,64.9,27.28,West,270,3.5,3.5,79,0.00,CLR,,0.00,WeatherDisplay:10.37,2013-07-31 05:36:00,
2013-07-31 00:41:00,71.6,65.5,27.27,East,90,4.6,4.6,81,0.00,CLR,,0.00,WeatherDisplay:10.37,2013-07-31 05:41:00,
2013-07-31 00:47:00,71.4,66.0,27.28,East,90,3.5,3.5,83,0.00,CLR,,0.00,WeatherDisplay:10.37,2013-07-31 05:47:00,
2013-07-31 00:52:00,71.4,66.0,27.28,East,90,3.5,3.5,83,0.00,CLR,,0.00,WeatherDisplay:10.37,2013-07-31 05:52:00,
2013-07-31 00:57:00,71.4,66.0,27.29,North,4,3.5,3.5,83,0.00,CLR,,0.00,WeatherDisplay:10.37,2013-07-31 05:57:00,
2013-07-31 01:02:00,71.4,66.0,27.29,North,0,3.5,3.5,83,0.00,CLR,,0.00,WeatherDisplay:10.37,2013-07-31 06:02:00,
2013-07-31 01:07:00,71.4,66.0,27.30,North,0,3.5,3.5,83,0.00,CLR,,0.00,WeatherDisplay:10.37,2013-07-31 06:07:00,
2013-07-31 01:12:00,70.5,65.8,27.30,East,90,5.8,5.8,85,0.00,CLR,,0.00,WeatherDisplay:10.37,2013-07-31 06:12:00,
2013-07-31 01:17:00,70.2,66.1,27.32,West,270,5.8,0.0,87,0.00,CLR,,0.00,WeatherDisplay:10.37,2013-07-31 06:17:00,
2013-07-31 01:22:00,70.2,66.1,27.32,NW,315,1.1,0.0,87,0.00,CLR,,0.00,WeatherDisplay:10.37,2013-07-31 06:22:00,
2013-07-31 01:28:00,70.2,66.1,27.35,NW,315,1.1,0.0,87,0.00,CLR,,0.00,WeatherDisplay:10.37,2013-07-31 06:28:00,
2013-07-31 01:33:00,70.2,66.1,27.36,NNE,14,1.1,0.0,87,0.00,CLR,,0.00,WeatherDisplay:10.37,2013-07-31 06:33:00,
2013-07-31 01:38:00,70.2,66.1,27.36,North,0,1.1,0.0,87,0.00,CLR,,0.00,WeatherDisplay:10.37,2013-07-31 06:38:00,
2013-07-31 01:43:00,70.2,66.1,27.36,North,0,1.1,0.0,87,0.00,CLR,,0.00,WeatherDisplay:10.37,2013-07-31 06:43:00,
2013-07-31 01:48:00,70.2,66.1,27.35,North,0,1.1,0.0,87,0.00,CLR,,0.00,WeatherDisplay:10.37,2013-07-31 06:48:00,
2013-07-31 01:54:00,70.2,66.1,27.35,North,0,1.1,0.0,87,0.00,CLR,,0.00,WeatherDisplay:10.37,2013-07-31 06:54:00,
2013-07-31 01:59:00,70.2,66.1,27.35,North,0,1.1,0.0,87,0.00,CLR,,0.00,WeatherDisplay:10.37,2013-07-31 06:59:00,
2013-07-31 02:04:00,70.2,66.1,27.36,North,0,1.1,0.0,87,0.00,CLR,,0.00,WeatherDisplay:10.37,2013-07-31 07:04:00,
2013-07-31 02:09:00,70.2,66.1,27.35,North,0,1.1,0.0,87,0.00,CLR,,0.00,WeatherDisplay:10.37,2013-07-31 07:09:00,
2013-07-31 02:14:00,70.2,66.1,27.34,North,0,1.1,0.0,87,0.00,CLR,,0.00,WeatherDisplay:10.37,2013-07-31 07:14:00,
2013-07-31 02:19:00,70.2,66.1,27.31,North,0,1.1,0.0,87,0.00,CLR,,0.00,WeatherDisplay:10.37,2013-07-31 07:19:00,
2013-07-31 02:25:00,70.2,66.1,27.28,North,0,1.1,0.0,87,0.00,CLR,,0.00,WeatherDisplay:10.37,2013-07-31 07:25:00,
2013-07-31 02:30:00,70.2,66.1,27.27,North,0,1.1,0.0,87,0.00,CLR,,0.00,WeatherDisplay:10.37,2013-07-31 07:30:00,
2013-07-31 02:35:00,70.2,66.1,27.28,North,0,1.1,0.0,87,0.00,CLR,,0.00,WeatherDisplay:10.37,2013-07-31 07:35:00,
2013-07-31 02:40:00,70.2,66.1,27.28,North,0,1.6,0.0,87,0.00,CLR,,0.00,WeatherDisplay:10.37,2013-07-31 07:40:00,
2013-07-31 02:45:00,70.2,66.1,27.28,North,0,1.1,0.0,87,0.00,CLR,,0.00,WeatherDisplay:10.37,2013-07-31 07:45:00,
2013-07-31 02:50:00,70.2,66.1,27.28,North,0,1.1,0.0,87,0.00,CLR,,0.00,WeatherDisplay:10.37,2013-07-31 07:50:00,
2013-07-31 02:56:00,70.2,66.1,27.27,North,0,1.1,0.0,87,0.00,CLR,,0.00,WeatherDisplay:10.37,2013-07-31 07:56:00,
2013-07-31 03:01:00,70.2,66.1,27.26,North,0,1.1,0.0,87,0.00,CLR,,0.00,WeatherDisplay:10.37,2013-07-31 08:01:00,
2013-07-31 03:06:00,70.2,66.1,27.26,North,0,1.1,0.0,87,0.00,CLR,,0.00,WeatherDisplay:10.37,2013-07-31 08:06:00,
2013-07-31 03:11:00,70.2,66.1,27.26,North,0,1.1,0.0,87,0.00,CLR,,0.00,WeatherDisplay:10.37,2013-07-31 08:11:00,
2013-07-31 03:16:00,70.2,66.1,27.26,North,0,1.1,0.0,87,0.00,CLR,,0.00,WeatherDisplay:10.37,2013-07-31 08:16:00,
2013-07-31 03:21:00,70.2,66.1,27.26,North,0,1.1,0.0,87,0.00,CLR,,0.00,WeatherDisplay:10.37,2013-07-31 08:21:00,
2013-07-31 03:27:00,70.2,66.1,27.26,North,0,1.1,0.0,87,0.00,CLR,,0.00,WeatherDisplay:10.37,2013-07-31 08:27:00,
2013-07-31 03:32:00,70.2,66.1,27.27,North,0,1.1,0.0,87,0.00,CLR,,0.00,WeatherDisplay:10.37,2013-07-31 08:32:00,
2013-07-31 03:37:00,70.2,66.1,27.28,North,0,1.6,0.0,87,0.00,CLR,,0.00,WeatherDisplay:10.37,2013-07-31 08:37:00,
2013-07-31 03:42:00,70.2,66.1,27.28,North,0,1.6,0.0,87,0.00,CLR,,0.00,WeatherDisplay:10.37,2013-07-31 08:42:00,
2013-07-31 03:47:00,70.2,66.1,27.29,North,0,1.1,0.0,87,0.00,CLR,,0.00,WeatherDisplay:10.37,2013-07-31 08:47:00,
2013-07-31 03:53:00,70.2,66.1,27.29,North,0,1.1,0.0,87,0.00,CLR,,0.00,WeatherDisplay:10.37,2013-07-31 08:53:00,
2013-07-31 03:58:00,70.2,66.1,27.30,North,0,1.1,0.0,87,0.00,CLR,,0.00,WeatherDisplay:10.37,2013-07-31 08:58:00,
2013-07-31 04:03:00,70.2,66.1,27.30,North,0,1.1,0.0,87,0.00,CLR,,0.00,WeatherDisplay:10.37,2013-07-31 09:03:00,
2013-07-31 04:08:00,70.2,66.1,27.30,North,0,1.1,0.0,87,0.00,CLR,,0.00,WeatherDisplay:10.37,2013-07-31 09:08:00,
2013-07-31 04:13:00,70.2,66.1,27.30,North,0,1.6,0.0,87,0.00,CLR,,0.00,WeatherDisplay:10.37,2013-07-31 09:13:00,
2013-07-31 04:18:00,70.2,66.1,27.29,North,0,1.1,0.0,87,0.00,CLR,,0.00,WeatherDisplay:10.37,2013-07-31 09:18:00,
2013-07-31 04:23:00,70.2,66.1,27.29,North,0,1.1,0.0,87,0.00,CLR,,0.00,WeatherDisplay:10.37,2013-07-31 09:23:00,
2013-07-31 04:28:00,70.2,66.1,27.30,North,0,1.1,0.0,87,0.00,CLR,,0.00,WeatherDisplay:10.37,2013-07-31 09:28:00,
2013-07-31 04:33:00,70.2,66.1,27.30,North,0,1.1,0.0,87,0.00,CLR,,0.00,WeatherDisplay:10.37,2013-07-31 09:33:00,
2013-07-31 04:38:00,70.2,66.1,27.29,North,0,1.1,0.0,87,0.00,CLR,,0.00,WeatherDisplay:10.37,2013-07-31 09:38:00,
2013-07-31 04:43:00,70.2,66.1,27.30,North,0,1.1,0.0,87,0.00,CLR,,0.00,WeatherDisplay:10.37,2013-07-31 09:43:00,
2013-07-31 04:48:00,70.2,66.1,27.30,North,0,1.1,0.0,87,0.00,CLR,,0.00,WeatherDisplay:10.37,2013-07-31 09:48:00,
2013-07-31 04:53:00,70.2,66.1,27.29,North,0,1.1,0.0,87,0.00,CLR,,0.00,WeatherDisplay:10.37,2013-07-31 09:53:00,
2013-07-31 04:58:00,70.2,66.1,27.29,North,0,1.1,0.0,87,0.00,CLR,,0.00,WeatherDisplay:10.37,2013-07-31 09:58:00,
2013-07-31 05:04:00,70.2,66.1,27.30,North,0,1.6,0.0,87,0.00,CLR,,0.00,WeatherDisplay:10.37,2013-07-31 10:04:00,
2013-07-31 05:09:00,70.2,66.1,27.30,North,0,1.1,0.0,87,0.00,CLR,,0.00,WeatherDisplay:10.37,2013-07-31 10:09:00,
2013-07-31 05:14:00,70.2,66.1,27.29,North,0,1.1,0.0,87,0.00,CLR,,0.00,WeatherDisplay:10.37,2013-07-31 10:14:00,
2013-07-31 05:19:00,70.2,66.1,27.29,North,0,1.1,0.0,87,0.00,CLR,,0.00,WeatherDisplay:10.37,2013-07-31 10:19:00,
2013-07-31 05:24:00,70.2,66.1,27.29,North,0,1.1,0.0,87,0.00,CLR,,0.00,WeatherDisplay:10.37,2013-07-31 10:24:00,
2013-07-31 05:30:00,70.2,66.1,27.29,North,0,1.1,0.0,87,0.00,CLR,,0.00,WeatherDisplay:10.37,2013-07-31 10:30:00,
2013-07-31 05:35:00,70.2,66.1,27.28,North,0,1.1,0.0,87,0.00,CLR,,0.00,WeatherDisplay:10.37,2013-07-31 10:35:00,
2013-07-31 05:40:00,70.2,66.1,27.29,North,0,1.1,0.0,87,0.00,CLR,,0.00,WeatherDisplay:10.37,2013-07-31 10:40:00,
2013-07-31 05:45:00,70.2,66.1,27.28,North,0,1.1,0.0,87,0.00,CLR,,0.00,WeatherDisplay:10.37,2013-07-31 10:45:00,
2013-07-31 05:51:00,70.2,66.1,27.27,North,0,1.1,0.0,87,0.00,CLR,,0.00,WeatherDisplay:10.37,2013-07-31 10:51:00,
2013-07-31 05:56:00,70.2,66.1,27.28,North,0,1.1,0.0,87,0.00,CLR,,0.00,WeatherDisplay:10.37,2013-07-31 10:56:00,
2013-07-31 06:01:00,70.2,66.1,27.28,North,0,1.1,0.0,87,0.00,CLR,,0.00,WeatherDisplay:10.37,2013-07-31 11:01:00,
2013-07-31 06:06:00,70.2,66.1,27.29,North,0,1.1,0.0,87,0.00,CLR,,0.00,WeatherDisplay:10.37,2013-07-31 11:06:00,
2013-07-31 06:11:00,70.2,66.1,27.28,North,0,1.1,0.0,87,0.00,CLR,,0.00,WeatherDisplay:10.37,2013-07-31 11:11:00,
2013-07-31 06:16:00,70.2,66.1,27.28,North,0,1.1,0.0,87,0.00,CLR,,0.00,WeatherDisplay:10.37,2013-07-31 11:16:00,
2013-07-31 06:22:00,70.2,66.1,27.28,North,0,1.1,0.0,87,0.00,CLR,,0.00,WeatherDisplay:10.37,2013-07-31 11:22:00,
2013-07-31 06:27:00,70.2,66.1,27.28,North,0,1.1,0.0,87,0.00,CLR,,0.00,WeatherDisplay:10.37,2013-07-31 11:27:00,
2013-07-31 06:32:00,70.2,66.1,27.28,North,0,1.1,0.0,87,0.00,CLR,,0.00,WeatherDisplay:10.37,2013-07-31 11:32:00,
2013-07-31 06:37:00,70.2,66.1,27.28,North,0,1.1,0.0,87,0.00,CLR,,0.00,WeatherDisplay:10.37,2013-07-31 11:37:00,
2013-07-31 06:42:00,70.2,66.1,27.28,North,0,1.1,0.0,87,0.00,CLR,,0.00,WeatherDisplay:10.37,2013-07-31 11:42:00,
2013-07-31 06:47:00,70.2,66.1,27.28,North,0,1.1,0.0,87,0.00,CLR,,0.00,WeatherDisplay:10.37,2013-07-31 11:47:00,
2013-07-31 06:52:00,70.2,66.1,27.29,North,0,1.1,0.0,87,0.00,CLR,,0.00,WeatherDisplay:10.37,2013-07-31 11:52:00,
2013-07-31 06:58:00,70.2,66.1,27.28,North,0,1.1,0.0,87,0.00,CLR,,0.00,WeatherDisplay:10.37,2013-07-31 11:58:00,
2013-07-31 07:03:00,70.2,66.1,27.29,North,0,1.1,0.0,87,0.00,CLR,,0.00,WeatherDisplay:10.37,2013-07-31 12:03:00,
2013-07-31 07:08:00,70.2,66.1,27.30,North,0,1.1,0.0,87,0.00,CLR,,0.00,WeatherDisplay:10.37,2013-07-31 12:08:00,
2013-07-31 07:13:00,70.2,66.1,27.29,North,0,1.1,0.0,87,0.00,CLR,,0.00,WeatherDisplay:10.37,2013-07-31 12:13:00,
2013-07-31 07:18:00,70.2,66.1,27.29,North,0,1.1,0.0,87,0.00,CLR,,0.00,WeatherDisplay:10.37,2013-07-31 12:18:00,
2013-07-31 07:23:00,70.2,66.1,27.29,North,0,1.1,0.0,87,0.00,CLR,,0.00,WeatherDisplay:10.37,2013-07-31 12:23:00,
2013-07-31 07:29:00,70.2,66.1,27.29,North,0,1.1,0.0,87,0.00,CLR,,0.00,WeatherDisplay:10.37,2013-07-31 12:29:00,
2013-07-31 07:34:00,70.2,66.1,27.29,North,0,1.6,0.0,87,0.00,CLR,,0.00,WeatherDisplay:10.37,2013-07-31 12:34:00,
2013-07-31 07:39:00,70.2,66.1,27.29,North,0,1.1,0.0,87,0.00,CLR,,0.00,WeatherDisplay:10.37,2013-07-31 12:39:00,
2013-07-31 07:44:00,70.2,66.1,27.28,North,0,1.1,0.0,87,0.00,CLR,,0.00,WeatherDisplay:10.37,2013-07-31 12:44:00,
2013-07-31 07:50:00,70.2,66.1,27.29,North,0,1.1,0.0,87,0.00,CLR,,0.00,WeatherDisplay:10.37,2013-07-31 12:50:00,
2013-07-31 07:55:00,70.2,66.1,27.29,North,0,1.1,0.0,87,0.00,CLR,,0.00,WeatherDisplay:10.37,2013-07-31 12:55:00,
2013-07-31 08:00:00,70.2,66.1,27.29,North,0,1.1,0.0,87,0.00,CLR,,0.00,WeatherDisplay:10.37,2013-07-31 13:00:00,
2013-07-31 08:06:00,70.2,66.1,27.29,North,0,1.1,0.0,87,0.00,CLR,,0.00,WeatherDisplay:10.37,2013-07-31 13:06:00,
2013-07-31 08:11:00,70.2,66.1,27.29,North,0,1.1,0.0,87,0.00,CLR,,0.00,WeatherDisplay:10.37,2013-07-31 13:11:00,
2013-07-31 08:16:00,66.7,66.5,27.29,NW,315,1.1,1.6,99,0.00,CLR,,0.17,WeatherDisplay:10.37,2013-07-31 13:16:00,
2013-07-31 08:21:00,66.7,66.5,27.30,NW,315,3.5,3.5,99,0.17,RA,,0.17,WeatherDisplay:10.37,2013-07-31 13:21:00,
2013-07-31 08:26:00,67.3,67.0,27.29,NW,315,3.5,0.0,99,0.17,RA,,0.17,WeatherDisplay:10.37,2013-07-31 13:26:00,
2013-07-31 08:32:00,67.6,67.3,27.30,NW,315,1.1,0.0,99,0.17,CLR,,0.17,WeatherDisplay:10.37,2013-07-31 13:32:00,
2013-07-31 08:37:00,68.0,67.7,27.30,NW,315,1.1,0.0,99,0.17,CLR,,0.17,WeatherDisplay:10.37,2013-07-31 13:37:00,
2013-07-31 08:42:00,69.6,69.3,27.29,NW,315,1.1,0.0,99,0.17,CLR,,0.17,WeatherDisplay:10.37,2013-07-31 13:42:00,
2013-07-31 08:47:00,70.7,69.8,27.29,NW,315,3.5,3.5,97,0.17,CLR,,0.17,WeatherDisplay:10.37,2013-07-31 13:47:00,
2013-07-31 08:52:00,71.4,69.6,27.29,NW,315,2.3,2.3,94,0.17,CLR,,0.17,WeatherDisplay:10.37,2013-07-31 13:52:00,
2013-07-31 08:57:00,72.3,69.5,27.30,NW,315,1.1,0.0,91,0.17,CLR,,0.17,WeatherDisplay:10.37,2013-07-31 13:57:00,
2013-07-31 09:02:00,72.7,69.2,27.29,NW,315,1.1,0.0,89,0.17,CLR,,0.17,WeatherDisplay:10.37,2013-07-31 14:02:00,
2013-07-31 09:07:00,72.7,69.2,27.30,NW,315,1.1,0.0,89,0.17,CLR,,0.17,WeatherDisplay:10.37,2013-07-31 14:07:00,
2013-07-31 09:12:00,74.5,69.7,27.30,NW,315,2.3,2.3,85,0.17,CLR,,0.17,WeatherDisplay:10.37,2013-07-31 14:12:00,
2013-07-31 09:18:00,74.7,68.8,27.30,NW,315,3.5,3.5,82,0.00,CLR,,0.17,WeatherDisplay:10.37,2013-07-31 14:18:00,
2013-07-31 09:23:00,75.2,69.3,27.30,North,0,1.1,1.1,82,0.00,CLR,,0.17,WeatherDisplay:10.37,2013-07-31 14:23:00,
2013-07-31 09:28:00,75.9,68.9,27.30,SE,135,1.1,0.0,79,0.00,CLR,,0.17,WeatherDisplay:10.37,2013-07-31 14:28:00,
2013-07-31 09:33:00,76.6,68.5,27.30,North,0,2.3,2.3,76,0.00,CLR,,0.17,WeatherDisplay:10.37,2013-07-31 14:33:00,
2013-07-31 09:38:00,76.6,68.1,27.31,NW,315,3.1,3.1,75,0.00,CLR,,0.17,WeatherDisplay:10.37,2013-07-31 14:38:00,
2013-07-31 09:43:00,76.3,67.4,27.31,North,0,3.5,3.5,74,0.00,CLR,,0.17,WeatherDisplay:10.37,2013-07-31 14:43:00,
2013-07-31 09:48:00,76.1,67.2,27.31,NW,315,4.6,4.6,74,0.00,CLR,,0.17,WeatherDisplay:10.37,2013-07-31 14:48:00,
2013-07-31 09:53:00,76.1,67.2,27.31,North,0,6.9,6.9,74,0.00,CLR,,0.17,WeatherDisplay:10.37,2013-07-31 14:53:00,
2013-07-31 09:59:00,76.5,67.2,27.31,NW,315,3.5,3.5,73,0.00,CLR,,0.17,WeatherDisplay:10.37,2013-07-31 14:59:00,
2013-07-31 10:04:00,76.5,67.6,27.31,North,0,6.9,6.9,74,0.00,CLR,,0.17,WeatherDisplay:10.37,2013-07-31 15:04:00,
2013-07-31 10:09:00,76.5,67.6,27.31,NNW,338,5.8,5.8,74,0.00,CLR,,0.17,WeatherDisplay:10.37,2013-07-31 15:09:00,
2013-07-31 10:14:00,76.5,66.8,27.30,NW,315,6.9,6.9,72,0.00,CLR,,0.17,WeatherDisplay:10.37,2013-07-31 15:14:00,
2013-07-31 10:19:00,76.6,67.7,27.31,NE,45,4.6,0.0,74,0.00,CLR,,0.17,WeatherDisplay:10.37,2013-07-31 15:19:00,
2013-07-31 10:25:00,77.5,68.2,27.30,NW,315,2.3,2.3,73,0.00,CLR,,0.17,WeatherDisplay:10.37,2013-07-31 15:25:00,
2013-07-31 10:30:00,77.7,66.7,27.31,NNW,338,4.6,4.6,69,0.00,CLR,,0.17,WeatherDisplay:10.37,2013-07-31 15:30:00,
2013-07-31 10:35:00,78.3,68.9,27.31,NW,315,3.5,3.5,73,0.00,CLR,,0.17,WeatherDisplay:10.37,2013-07-31 15:35:00,
2013-07-31 10:40:00,78.8,67.3,27.30,NW,315,3.5,3.5,68,0.00,CLR,,0.17,WeatherDisplay:10.37,2013-07-31 15:40:00,
2013-07-31 10:45:00,79.0,67.1,27.31,North,0,5.8,0.0,67,0.00,CLR,,0.17,WeatherDisplay:10.37,2013-07-31 15:45:00,
2013-07-31 10:50:00,79.7,69.0,27.31,North,0,1.1,1.1,70,0.00,CLR,,0.17,WeatherDisplay:10.37,2013-07-31 15:50:00,
2013-07-31 10:56:00,80.4,68.5,27.31,NW,315,4.6,4.6,67,0.00,CLR,,0.17,WeatherDisplay:10.37,2013-07-31 15:56:00,
2013-07-31 11:01:00,80.2,67.8,27.31,NW,315,3.5,3.5,66,0.00,CLR,,0.17,WeatherDisplay:10.37,2013-07-31 16:01:00,
2013-07-31 11:07:00,80.2,67.8,27.31,NW,315,1.1,1.1,66,0.00,CLR,,0.17,WeatherDisplay:10.37,2013-07-31 16:07:00,
2013-07-31 11:12:00,81.1,70.4,27.30,South,180,1.1,1.1,70,0.00,CLR,,0.17,WeatherDisplay:10.37,2013-07-31 16:12:00,
2013-07-31 11:17:00,81.9,69.8,27.31,North,0,3.8,3.8,67,0.00,CLR,,0.17,WeatherDisplay:10.37,2013-07-31 16:17:00,
2013-07-31 11:22:00,82.0,68.7,27.31,NW,315,4.6,4.6,64,0.00,CLR,,0.17,WeatherDisplay:10.37,2013-07-31 16:22:00,
2013-07-31 11:27:00,82.0,69.1,27.30,NNW,338,5.8,5.8,65,0.00,CLR,,0.17,WeatherDisplay:10.37,2013-07-31 16:27:00,
2013-07-31 11:32:00,81.9,68.5,27.30,NW,315,4.6,4.6,64,0.00,CLR,,0.17,WeatherDisplay:10.37,2013-07-31 16:32:00,
2013-07-31 11:37:00,81.9,68.9,27.30,NW,315,2.3,2.3,65,0.00,CLR,,0.17,WeatherDisplay:10.37,2013-07-31 16:37:00,
2013-07-31 11:42:00,81.5,68.6,27.30,North,0,3.5,0.0,65,0.00,CLR,,0.17,WeatherDisplay:10.37,2013-07-31 16:42:00,
2013-07-31 11:48:00,81.3,68.4,27.30,NE,45,1.1,1.1,65,0.00,CLR,,0.17,WeatherDisplay:10.37,2013-07-31 16:48:00,
2013-07-31 11:53:00,82.4,69.4,27.30,North,0,1.1,0.0,65,0.00,CLR,,0.17,WeatherDisplay:10.37,2013-07-31 16:53:00,
2013-07-31 11:58:00,82.4,68.5,27.30,NNE,22,3.5,3.5,63,0.00,CLR,,0.17,WeatherDisplay:10.37,2013-07-31 16:58:00,
2013-07-31 12:03:00,82.0,68.7,27.30,North,0,3.5,3.5,64,0.00,CLR,,0.17,WeatherDisplay:10.37,2013-07-31 17:03:00,
2013-07-31 12:08:00,82.9,69.0,27.30,NE,45,4.6,4.6,63,0.00,CLR,,0.17,WeatherDisplay:10.37,2013-07-31 17:08:00,
2013-07-31 12:14:00,83.5,70.5,27.29,NW,315,2.3,2.3,65,0.00,CLR,,0.17,WeatherDisplay:10.37,2013-07-31 17:14:00,
2013-07-31 12:19:00,84.4,69.0,27.29,NE,45,3.8,3.8,60,0.00,CLR,,0.17,WeatherDisplay:10.37,2013-07-31 17:19:00,
2013-07-31 12:24:00,83.8,68.5,27.30,North,0,3.5,3.5,60,0.00,CLR,,0.17,WeatherDisplay:10.37,2013-07-31 17:24:00,
2013-07-31 12:29:00,83.8,69.9,27.29,North,0,1.1,0.0,63,0.00,CLR,,0.17,WeatherDisplay:10.37,2013-07-31 17:29:00,
2013-07-31 12:35:00,84.9,70.4,27.29,West,270,3.5,3.5,62,0.00,CLR,,0.17,WeatherDisplay:10.37,2013-07-31 17:35:00,
2013-07-31 12:40:00,86.4,68.8,27.29,NW,315,5.8,5.8,56,0.00,CLR,,0.17,WeatherDisplay:10.37,2013-07-31 17:40:00,
2013-07-31 12:45:00,84.9,68.0,27.29,NW,315,5.8,5.8,57,0.00,CLR,,0.17,WeatherDisplay:10.37,2013-07-31 17:45:00,
2013-07-31 12:50:00,84.0,68.6,27.29,North,0,3.5,3.5,60,0.00,CLR,,0.17,WeatherDisplay:10.37,2013-07-31 17:50:00,
2013-07-31 12:55:00,83.8,70.4,27.28,SW,225,2.3,2.3,64,0.00,CLR,,0.17,WeatherDisplay:10.37,2013-07-31 17:55:00,
2013-07-31 13:01:00,85.6,72.1,27.28,East,90,1.1,1.1,64,0.00,CLR,,0.17,WeatherDisplay:10.37,2013-07-31 18:01:00,
2013-07-31 13:06:00,85.6,72.1,27.28,East,90,1.1,1.1,64,0.00,CLR,,0.17,WeatherDisplay:10.37,2013-07-31 18:06:00,
2013-07-31 13:11:00,86.9,68.8,27.28,North,0,2.3,0.0,55,0.00,CLR,,0.17,WeatherDisplay:10.37,2013-07-31 18:11:00,
2013-07-31 13:16:00,87.1,69.5,27.28,NNW,338,2.3,2.3,56,0.00,CLR,,0.17,WeatherDisplay:10.37,2013-07-31 18:16:00,
2013-07-31 13:22:00,87.8,69.1,27.28,NW,315,1.1,0.0,54,0.00,CLR,,0.17,WeatherDisplay:10.37,2013-07-31 18:22:00,
2013-07-31 13:27:00,87.8,69.1,27.28,East,90,2.3,2.3,54,0.00,CLR,,0.17,WeatherDisplay:10.37,2013-07-31 18:27:00,
2013-07-31 13:32:00,88.7,69.4,27.28,WNW,292,3.5,3.8,53,0.00,CLR,,0.17,WeatherDisplay:10.37,2013-07-31 18:32:00,
2013-07-31 13:37:00,88.2,68.9,27.28,North,0,4.6,4.6,53,0.00,CLR,,0.17,WeatherDisplay:10.37,2013-07-31 18:37:00,
2013-07-31 13:42:00,88.3,69.6,27.28,North,0,2.3,2.3,54,0.00,CLR,,0.17,WeatherDisplay:10.37,2013-07-31 18:42:00,
2013-07-31 13:47:00,88.7,68.2,27.28,SE,135,2.3,2.3,51,0.00,CLR,,0.17,WeatherDisplay:10.37,2013-07-31 18:47:00,
2013-07-31 13:53:00,89.4,69.5,27.28,North,0,2.3,0.0,52,0.00,CLR,,0.17,WeatherDisplay:10.37,2013-07-31 18:53:00,
2013-07-31 13:58:00,89.2,68.2,27.28,NW,315,2.3,0.0,50,0.00,CLR,,0.17,WeatherDisplay:10.37,2013-07-31 18:58:00,
2013-07-31 14:03:00,88.5,68.1,27.28,North,0,3.5,3.5,51,0.00,CLR,,0.17,WeatherDisplay:10.37,2013-07-31 19:03:00,
2013-07-31 14:08:00,87.4,67.7,27.28,North,0,3.5,3.5,52,0.00,CLR,,0.17,WeatherDisplay:10.37,2013-07-31 19:08:00,
2013-07-31 14:13:00,87.4,68.2,27.28,NW,315,2.3,2.3,53,0.00,CLR,,0.17,WeatherDisplay:10.37,2013-07-31 19:13:00,
2013-07-31 14:18:00,88.2,68.3,27.28,NE,45,3.5,3.5,52,0.00,CLR,,0.17,WeatherDisplay:10.37,2013-07-31 19:18:00,
2013-07-31 14:23:00,88.5,68.1,27.27,East,90,1.1,1.1,51,0.00,CLR,,0.17,WeatherDisplay:10.37,2013-07-31 19:23:00,
2013-07-31 14:29:00,89.4,69.5,27.27,South,180,1.1,1.1,52,0.00,CLR,,0.17,WeatherDisplay:10.37,2013-07-31 19:29:00,
2013-07-31 14:34:00,90.0,68.2,27.27,North,0,3.5,3.5,49,0.00,CLR,,0.17,WeatherDisplay:10.37,2013-07-31 19:34:00,
2013-07-31 14:39:00,89.4,69.5,27.27,NNW,338,3.5,3.5,52,0.00,CLR,,0.17,WeatherDisplay:10.37,2013-07-31 19:39:00,
2013-07-31 14:44:00,89.6,68.5,27.27,NW,315,2.3,2.3,50,0.00,CLR,,0.17,WeatherDisplay:10.37,2013-07-31 19:44:00,
2013-07-31 14:49:00,89.8,68.1,27.27,South,180,3.5,3.5,49,0.00,CLR,,0.17,WeatherDisplay:10.37,2013-07-31 19:49:00,
2013-07-31 14:55:00,90.1,69.6,27.27,SW,225,4.6,4.6,51,0.00,CLR,,0.17,WeatherDisplay:10.37,2013-07-31 19:55:00,
2013-07-31 15:00:00,90.3,69.2,27.27,North,0,4.6,4.6,50,0.00,CLR,,0.17,WeatherDisplay:10.37,2013-07-31 20:00:00,
2013-07-31 15:05:00,90.3,68.6,27.26,SW,225,1.1,0.0,49,0.00,CLR,,0.17,WeatherDisplay:10.37,2013-07-31 20:05:00,
2013-07-31 15:10:00,89.6,69.1,27.26,South,180,5.8,5.8,51,0.00,CLR,,0.17,WeatherDisplay:10.37,2013-07-31 20:10:00,
2013-07-31 15:15:00,89.2,68.7,27.27,SE,135,2.3,2.3,51,0.00,CLR,,0.17,WeatherDisplay:10.37,2013-07-31 20:15:00,
2013-07-31 15:21:00,89.1,68.6,27.26,North,0,2.3,2.3,51,0.00,CLR,,0.17,WeatherDisplay:10.37,2013-07-31 20:21:00,
2013-07-31 15:26:00,89.2,68.7,27.26,West,270,2.3,0.0,51,0.00,CLR,,0.17,WeatherDisplay:10.37,2013-07-31 20:26:00,
2013-07-31 15:31:00,90.0,69.4,27.26,East,90,5.8,5.8,51,0.00,CLR,,0.17,WeatherDisplay:10.37,2013-07-31 20:31:00,
2013-07-31 15:36:00,90.0,68.8,27.26,WSW,248,3.5,3.5,50,0.00,CLR,,0.17,WeatherDisplay:10.37,2013-07-31 20:36:00,
2013-07-31 15:42:00,88.9,69.0,27.25,East,90,5.8,5.8,52,0.00,CLR,,0.17,WeatherDisplay:10.37,2013-07-31 20:42:00,
2013-07-31 15:47:00,89.1,69.1,27.25,SW,225,4.5,4.5,52,0.00,CLR,,0.17,WeatherDisplay:10.37,2013-07-31 20:47:00,
2013-07-31 15:52:00,89.1,69.7,27.24,NE,45,4.6,4.6,53,0.00,CLR,,0.17,WeatherDisplay:10.37,2013-07-31 20:52:00,
2013-07-31 15:57:00,88.7,68.8,27.24,SE,135,3.5,3.5,52,0.00,CLR,,0.17,WeatherDisplay:10.37,2013-07-31 20:57:00,
2013-07-31 16:02:00,88.5,69.2,27.25,SSW,202,3.5,3.5,53,0.00,CLR,,0.17,WeatherDisplay:10.37,2013-07-31 21:02:00,
2013-07-31 16:08:00,88.5,69.2,27.24,NE,45,2.3,2.3,53,0.00,CLR,,0.17,WeatherDisplay:10.37,2013-07-31 21:08:00,
2013-07-31 16:13:00,88.5,68.6,27.24,East,90,4.6,4.6,52,0.00,CLR,,0.17,WeatherDisplay:10.37,2013-07-31 21:13:00,
2013-07-31 16:18:00,88.3,68.5,27.24,East,90,4.6,4.6,52,0.00,CLR,,0.17,WeatherDisplay:10.37,2013-07-31 21:18:00,
2013-07-31 16:23:00,88.2,68.9,27.23,East,90,4.6,4.6,53,0.00,CLR,,0.17,WeatherDisplay:10.37,2013-07-31 21:23:00,
2013-07-31 16:28:00,88.3,68.5,27.23,NE,45,3.5,0.0,52,0.00,CLR,,0.17,WeatherDisplay:10.37,2013-07-31 21:28:00,
2013-07-31 16:33:00,88.3,68.5,27.23,East,90,2.3,2.3,52,0.00,CLR,,0.17,WeatherDisplay:10.37,2013-07-31 21:33:00,
2013-07-31 16:38:00,88.3,68.5,27.23,West,270,6.9,6.9,52,0.00,CLR,,0.17,WeatherDisplay:10.37,2013-07-31 21:38:00,
2013-07-31 16:43:00,88.0,68.1,27.23,South,180,3.5,3.5,52,0.00,CLR,,0.17,WeatherDisplay:10.37,2013-07-31 21:43:00,
2013-07-31 16:48:00,87.8,66.8,27.22,SW,225,4.6,4.6,50,0.00,CLR,,0.17,WeatherDisplay:10.37,2013-07-31 21:48:00,
2013-07-31 16:54:00,87.8,67.4,27.22,South,180,5.4,5.4,51,0.00,CLR,,0.17,WeatherDisplay:10.37,2013-07-31 21:54:00,
2013-07-31 16:59:00,87.4,67.7,27.22,South,180,6.9,6.9,52,0.00,CLR,,0.17,WeatherDisplay:10.37,2013-07-31 21:59:00,
2013-07-31 17:04:00,87.4,67.7,27.22,South,180,5.8,5.8,52,0.00,CLR,,0.17,WeatherDisplay:10.37,2013-07-31 22:04:00,
2013-07-31 17:09:00,87.3,67.5,27.22,North,0,2.3,2.3,52,0.00,CLR,,0.17,WeatherDisplay:10.37,2013-07-31 22:09:00,
2013-07-31 17:14:00,87.3,66.9,27.22,SE,135,5.8,5.8,51,0.00,CLR,,0.17,WeatherDisplay:10.37,2013-07-31 22:14:00,
2013-07-31 17:19:00,87.4,67.7,27.22,SW,225,2.3,2.3,52,0.00,CLR,,0.17,WeatherDisplay:10.37,2013-07-31 22:19:00,
2013-07-31 17:24:00,87.4,67.1,27.22,North,0,3.5,3.5,51,0.00,CLR,,0.17,WeatherDisplay:10.37,2013-07-31 22:24:00,
2013-07-31 17:29:00,87.4,67.1,27.22,WSW,248,2.3,2.3,51,0.00,CLR,,0.17,WeatherDisplay:10.37,2013-07-31 22:29:00,
2013-07-31 17:35:00,87.4,66.5,27.22,North,0,1.1,0.0,50,0.00,CLR,,0.17,WeatherDisplay:10.37,2013-07-31 22:35:00,
2013-07-31 17:40:00,87.4,67.7,27.22,SW,225,3.5,3.5,52,0.00,CLR,,0.17,WeatherDisplay:10.37,2013-07-31 22:40:00,
2013-07-31 17:45:00,87.4,67.1,27.22,North,0,1.1,1.6,51,0.00,CLR,,0.17,WeatherDisplay:10.37,2013-07-31 22:45:00,
2013-07-31 17:50:00,87.4,68.2,27.22,NNW,338,2.3,0.0,53,0.00,CLR,,0.17,WeatherDisplay:10.37,2013-07-31 22:50:00,
2013-07-31 17:55:00,87.4,68.2,27.22,East,90,3.5,3.5,53,0.00,CLR,,0.17,WeatherDisplay:10.37,2013-07-31 22:55:00,
2013-07-31 18:01:00,87.3,67.5,27.21,North,0,3.5,3.5,52,0.00,CLR,,0.17,WeatherDisplay:10.37,2013-07-31 23:01:00,
2013-07-31 18:06:00,87.3,66.9,27.22,East,90,1.1,1.1,51,0.00,CLR,,0.17,WeatherDisplay:10.37,2013-07-31 23:06:00,
2013-07-31 18:11:00,87.1,66.8,27.21,South,180,3.5,0.0,51,0.00,CLR,,0.17,WeatherDisplay:10.37,2013-07-31 23:11:00,
2013-07-31 18:17:00,86.7,66.4,27.21,SE,135,3.5,3.5,51,0.00,CLR,,0.17,WeatherDisplay:10.37,2013-07-31 23:17:00,
2013-07-31 18:22:00,86.9,66.6,27.22,SE,135,3.5,3.8,51,0.00,CLR,,0.17,WeatherDisplay:10.37,2013-07-31 23:22:00,
2013-07-31 18:27:00,86.9,67.2,27.21,East,90,4.6,4.6,52,0.00,CLR,,0.17,WeatherDisplay:10.37,2013-07-31 23:27:00,
2013-07-31 18:32:00,86.5,67.4,27.22,East,90,4.6,4.6,53,0.00,CLR,,0.17,WeatherDisplay:10.37,2013-07-31 23:32:00,
2013-07-31 18:37:00,86.0,66.9,27.22,East,90,3.5,3.5,53,0.00,CLR,,0.17,WeatherDisplay:10.37,2013-07-31 23:37:00,
2013-07-31 18:42:00,85.8,67.3,27.22,SW,225,4.6,4.6,54,0.00,CLR,,0.17,WeatherDisplay:10.37,2013-07-31 23:42:00,
2013-07-31 18:48:00,85.8,67.3,27.22,South,180,5.8,5.8,54,0.00,CLR,,0.17,WeatherDisplay:10.37,2013-07-31 23:48:00,
2013-07-31 18:53:00,85.5,67.4,27.22,East,90,5.8,5.8,55,0.00,CLR,,0.17,WeatherDisplay:10.37,2013-07-31 23:53:00,
2013-07-31 18:58:00,85.3,67.3,27.22,NE,45,3.5,3.5,55,0.00,CLR,,0.17,WeatherDisplay:10.37,2013-07-31 23:58:00,
2013-07-31 19:03:00,85.3,67.3,27.22,East,90,3.5,3.5,55,0.00,CLR,,0.17,WeatherDisplay:10.37,2013-08-01 00:03:00,
2013-07-31 19:08:00,84.9,66.4,27.22,South,180,3.5,3.5,54,0.00,CLR,,0.17,WeatherDisplay:10.37,2013-08-01 00:08:00,
2013-07-31 19:13:00,84.9,66.9,27.23,South,180,5.8,5.8,55,0.00,CLR,,0.17,WeatherDisplay:10.37,2013-08-01 00:13:00,
2013-07-31 19:19:00,84.4,66.4,27.23,SW,225,3.5,3.5,55,0.00,CLR,,0.17,WeatherDisplay:10.37,2013-08-01 00:19:00,
2013-07-31 19:24:00,84.0,66.6,27.23,SW,225,8.1,8.1,56,0.00,CLR,,0.17,WeatherDisplay:10.37,2013-08-01 00:24:00,
2013-07-31 19:29:00,83.5,66.1,27.23,SE,135,3.5,3.5,56,0.00,CLR,,0.17,WeatherDisplay:10.37,2013-08-01 00:29:00,
2013-07-31 19:34:00,82.9,65.6,27.23,NW,315,2.3,2.3,56,0.00,CLR,,0.17,WeatherDisplay:10.37,2013-08-01 00:34:00,
2013-07-31 19:39:00,82.2,66.0,27.23,SE,135,4.6,4.6,58,0.00,CLR,,0.17,WeatherDisplay:10.37,2013-08-01 00:39:00,
2013-07-31 19:44:00,82.0,65.8,27.23,South,180,3.5,3.5,58,0.00,CLR,,0.17,WeatherDisplay:10.37,2013-08-01 00:44:00,
2013-07-31 19:49:00,81.9,66.1,27.23,South,180,3.5,3.5,59,0.00,CLR,,0.17,WeatherDisplay:10.37,2013-08-01 00:49:00,
2013-07-31 19:55:00,81.7,66.0,27.23,SE,135,5.8,5.8,59,0.00,CLR,,0.17,WeatherDisplay:10.37,2013-08-01 00:55:00,
2013-07-31 20:00:00,81.5,65.8,27.24,South,180,3.5,3.5,59,0.00,CLR,,0.17,WeatherDisplay:10.37,2013-08-01 01:00:00,
2013-07-31 20:05:00,81.5,66.3,27.24,West,270,3.5,3.5,60,0.00,CLR,,0.17,WeatherDisplay:10.37,2013-08-01 01:05:00,
2013-07-31 20:10:00,81.1,65.9,27.23,South,180,3.5,3.5,60,0.00,CLR,,0.17,WeatherDisplay:10.37,2013-08-01 01:10:00,
2013-07-31 20:16:00,81.0,66.2,27.24,NE,45,2.3,2.3,61,0.00,CLR,,0.17,WeatherDisplay:10.37,2013-08-01 01:16:00,
2013-07-31 20:21:00,81.0,66.2,27.24,SW,225,1.1,1.1,61,0.00,CLR,,0.17,WeatherDisplay:10.37,2013-08-01 01:21:00,
2013-07-31 20:26:00,81.0,66.2,27.24,North,10,1.1,1.1,61,0.00,CLR,,0.17,WeatherDisplay:10.37,2013-08-01 01:26:00,
2013-07-31 20:32:00,81.0,66.2,27.24,North,0,1.1,1.1,61,0.00,CLR,,0.17,WeatherDisplay:10.37,2013-08-01 01:32:00,
2013-07-31 20:37:00,81.0,66.2,27.24,North,0,1.6,1.6,61,0.00,CLR,,0.17,WeatherDisplay:10.37,2013-08-01 01:37:00,
2013-07-31 20:42:00,89.8,60.8,27.24,North,0,6.9,6.9,38,0.00,CLR,,0.17,WeatherDisplay:10.37,2013-08-01 01:42:00,
2013-07-31 20:47:00,89.8,60.8,27.24,North,0,6.9,6.9,38,0.00,CLR,,0.17,WeatherDisplay:10.37,2013-08-01 01:47:00,
2013-07-31 20:52:00,89.8,60.8,27.24,North,0,6.9,6.9,38,0.00,CLR,,0.17,WeatherDisplay:10.37,2013-08-01 01:52:00,
2013-07-31 20:58:00,89.8,60.8,27.24,North,0,6.9,6.9,38,0.00,CLR,,0.17,WeatherDisplay:10.37,2013-08-01 01:58:00,
2013-07-31 21:03:00,89.8,60.8,27.25,North,0,6.9,6.9,38,0.00,CLR,,0.17,WeatherDisplay:10.37,2013-08-01 02:03:00,
2013-07-31 21:08:00,89.8,60.8,27.26,North,0,6.9,6.9,38,0.00,CLR,,0.17,WeatherDisplay:10.37,2013-08-01 02:08:00,
2013-07-31 21:13:00,89.8,60.8,27.26,North,0,6.9,6.9,38,0.00,CLR,,0.17,WeatherDisplay:10.37,2013-08-01 02:13:00,
2013-07-31 21:18:00,89.8,60.8,27.26,North,0,6.9,6.9,38,0.00,CLR,,0.17,WeatherDisplay:10.37,2013-08-01 02:18:00,
2013-07-31 21:23:00,89.8,60.8,27.26,North,0,6.9,6.9,38,0.00,CLR,,0.17,WeatherDisplay:10.37,2013-08-01 02:23:00,
2013-07-31 21:28:00,89.8,60.8,27.26,North,0,6.9,6.9,38,0.00,CLR,,0.17,WeatherDisplay:10.37,2013-08-01 02:28:00,
2013-07-31 21:34:00,89.8,60.8,27.26,North,0,6.9,6.9,38,0.00,CLR,,0.17,WeatherDisplay:10.37,2013-08-01 02:34:00,
2013-07-31 21:39:00,89.8,60.8,27.27,North,0,6.9,6.9,38,0.00,CLR,,0.17,WeatherDisplay:10.37,2013-08-01 02:39:00,
2013-07-31 21:44:00,89.8,60.8,27.27,North,0,6.9,6.9,38,0.00,CLR,,0.17,WeatherDisplay:10.37,2013-08-01 02:44:00,
2013-07-31 21:49:00,89.8,60.8,27.28,North,0,6.9,6.9,38,0.00,CLR,,0.17,WeatherDisplay:10.37,2013-08-01 02:49:00,
2013-07-31 21:55:00,89.8,60.8,27.27,North,0,6.9,6.9,38,0.00,CLR,,0.17,WeatherDisplay:10.37,2013-08-01 02:55:00,
2013-07-31 22:00:00,89.8,60.8,27.28,North,0,6.9,6.9,38,0.00,CLR,,0.17,WeatherDisplay:10.37,2013-08-01 03:00:00,
2013-07-31 22:05:00,89.8,60.8,27.28,North,0,6.9,6.9,38,0.00,CLR,,0.17,WeatherDisplay:10.37,2013-08-01 03:05:00,
2013-07-31 22:10:00,89.8,60.8,27.28,North,0,6.9,6.9,38,0.00,CLR,,0.17,WeatherDisplay:10.37,2013-08-01 03:10:00,
2013-07-31 22:15:00,89.8,60.8,27.28,North,0,6.9,6.9,38,0.00,CLR,,0.17,WeatherDisplay:10.37,2013-08-01 03:15:00,
2013-07-31 22:20:00,89.8,60.8,27.28,North,0,6.9,6.9,38,0.00,CLR,,0.17,WeatherDisplay:10.37,2013-08-01 03:20:00,
2013-07-31 22:26:00,89.8,60.8,27.28,North,0,6.9,6.9,38,0.00,CLR,,0.17,WeatherDisplay:10.37,2013-08-01 03:26:00,
2013-07-31 22:31:00,89.8,60.8,27.29,North,0,6.9,6.9,38,0.00,CLR,,0.17,WeatherDisplay:10.37,2013-08-01 03:31:00,
2013-07-31 22:36:00,89.8,60.8,27.28,North,0,6.9,6.9,38,0.00,CLR,,0.17,WeatherDisplay:10.37,2013-08-01 03:36:00,
2013-07-31 22:41:00,89.8,60.8,27.29,North,0,6.9,6.9,38,0.00,CLR,,0.17,WeatherDisplay:10.37,2013-08-01 03:41:00,
2013-07-31 22:46:00,89.8,60.8,27.29,North,0,6.9,6.9,38,0.00,CLR,,0.17,WeatherDisplay:10.37,2013-08-01 03:46:00,
2013-07-31 22:52:00,89.8,60.8,27.28,North,0,6.9,6.9,38,0.00,CLR,,0.17,WeatherDisplay:10.37,2013-08-01 03:52:00,
2013-07-31 22:57:00,89.8,60.8,27.28,North,0,6.9,6.9,38,0.00,CLR,,0.17,WeatherDisplay:10.37,2013-08-01 03:57:00,
2013-07-31 23:01:00,89.8,60.8,27.28,North,0,6.9,6.9,38,0.00,CLR,,0.17,WeatherDisplay:10.37,2013-08-01 04:01:00,
2013-07-31 23:02:00,89.8,60.8,27.28,North,0,6.9,6.9,38,0.00,CLR,,0.17,WeatherDisplay:10.37,2013-08-01 04:02:00,
2013-07-31 23:04:00,89.8,60.8,27.28,North,0,6.9,6.9,38,0.00,CLR,,0.17,WeatherDisplay:10.37,2013-08-01 04:04:00,
2013-07-31 23:06:00,89.8,60.8,27.28,North,0,6.9,6.9,38,0.00,CLR,,0.17,WeatherDisplay:10.37,2013-08-01 04:06:00,
2013-07-31 23:11:00,89.8,60.8,27.28,North,0,6.9,6.9,38,0.00,CLR,,0.17,WeatherDisplay:10.37,2013-08-01 04:11:00,
2013-07-31 23:16:00,89.8,60.8,27.28,North,0,6.9,6.9,38,0.00,CLR,,0.17,WeatherDisplay:10.37,2013-08-01 04:16:00,
2013-07-31 23:22:00,89.8,60.8,27.27,North,0,6.9,6.9,38,0.00,CLR,,0.17,WeatherDisplay:10.37,2013-08-01 04:22:00,
2013-07-31 23:27:00,89.8,60.8,27.28,North,0,6.9,6.9,38,0.00,CLR,,0.17,WeatherDisplay:10.37,2013-08-01 04:27:00,
2013-07-31 23:32:00,89.8,60.8,27.28,North,0,6.9,6.9,38,0.00,CLR,,0.17,WeatherDisplay:10.37,2013-08-01 04:32:00,
2013-07-31 23:37:00,89.8,60.8,27.28,North,0,6.9,6.9,38,0.00,CLR,,0.17,WeatherDisplay:10.37,2013-08-01 04:37:00,
2013-07-31 23:43:00,89.8,60.8,27.28,North,0,6.9,6.9,38,0.00,CLR,,0.17,WeatherDisplay:10.37,2013-08-01 04:43:00,
2013-07-31 23:48:00,89.8,60.8,27.27,North,0,6.9,6.9,38,0.00,CLR,,0.17,WeatherDisplay:10.37,2013-08-01 04:48:00,
2013-07-31 23:53:00,89.8,60.8,27.28,North,0,6.9,6.9,38,0.00,CLR,,0.17,WeatherDisplay:10.37,2013-08-01 04:53:00,
2013-07-31 23:58:00,72.1,65.3,27.27,West,270,1.1,1.1,79,0.00,CLR,,0.17,WeatherDisplay:10.37,2013-08-01 04:58:00,